DW8915 Weather Reports


Display with metric or nautical units.
time (UTC)temp
F
wind
direction
speed
MPH
gust
MPH
rain 1hr
in
rain 24hr
in
rain mn
in
humidity
%
barometer
mb
20260510174518 93 105 2.0 0.0 0.00 0.00 0.00 28 1004.6
20260510173015 92 360 2.0 0.0 0.00 0.00 0.00 29 1004.6
20260510171512 90 206 2.0 0.0 0.00 0.00 0.00 31 1004.7
20260510170011 90 279 3.0 0.0 0.00 0.00 0.00 29 1004.5
20260510164509 90 201 4.0 0.0 0.00 0.00 0.00 34 1004.6
20260510163007 88 212 4.0 0.0 0.00 0.00 0.00 35 1004.4
20260510161502 87 195 5.0 0.0 0.00 0.00 0.00 36 1004.4
20260510160057 86 192 6.0 0.0 0.00 0.00 0.00 39 1003.9
20260510154557 85 197 6.0 0.0 0.00 0.00 0.00 43 1003.9
20260510153049 83 170 6.0 0.0 0.00 0.00 0.00 47 1003.8
20260510151549 81 180 6.0 0.0 0.00 0.00 0.00 49 1003.8
20260510150051 80 208 5.0 0.0 0.00 0.00 0.00 50 1003.8
20260510144557 79 207 5.0 0.0 0.00 0.00 0.00 52 1003.8
20260510143039 79 169 6.0 0.0 0.00 0.00 0.00 55 1003.6
20260510141536 78 175 5.0 0.0 0.00 0.00 0.00 56 1003.5
20260510140033 75 190 4.0 0.0 0.00 0.00 0.00 62 1003.5
20260510134531 73 207 2.0 0.0 0.00 0.00 0.00 66 1003.6
20260510133028 72 118 4.0 0.0 0.00 0.00 0.00 66 1003.4
20260510131527 72 192 4.0 0.0 0.00 0.00 0.00 67 1003.3
20260510130024 71 142 5.0 0.0 0.00 0.00 0.00 67 1003.0
20260510124524 71 171 4.0 0.0 0.00 0.00 0.00 68 1002.9
20260510123019 70 202 5.0 0.0 0.00 0.00 0.00 67 1002.7
20260510121520 70 159 4.0 0.0 0.00 0.00 0.00 67 1002.6
20260510120022 70 187 3.0 0.0 0.00 0.00 0.00 66 1002.7
20260510114516 71 144 3.0 0.0 0.00 0.00 0.00 65 1002.5
20260510113013 71 147 3.0 0.0 0.00 0.00 0.00 65 1002.4
20260510111512 71 198 4.0 0.0 0.00 0.00 0.00 65 1002.5
20260510110013 71 136 3.0 0.0 0.00 0.00 0.00 64 1002.3
20260510104513 71 173 4.0 0.0 0.00 0.00 0.00 64 1002.0
20260510103009 71 153 4.0 0.0 0.00 0.00 0.00 62 1001.9
20260510101507 72 165 4.0 0.0 0.00 0.00 0.00 61 1001.9
20260510100007 72 169 3.0 0.0 0.00 0.00 0.00 61 1001.9
20260510094517 72 169 3.0 0.0 0.00 0.00 0.00 60 1001.9
20260510093003 72 156 3.0 0.0 0.00 0.00 0.00 59 1001.9
20260510091505 72 163 3.0 0.0 0.00 0.00 0.00 57 1001.9
20260510090001 73 152 3.0 0.0 0.00 0.00 0.00 56 1002.0
20260510084559 73 150 4.0 0.0 0.00 0.00 0.00 56 1001.9
20260510083106 73 136 3.0 0.0 0.00 0.00 0.00 56 1001.8
20260510081628 73 184 3.0 0.0 0.00 0.00 0.00 56 1001.9
20260510080056 74 199 4.0 0.0 0.00 0.00 0.00 54 1002.0
20260510074554 74 200 4.0 0.0 0.00 0.00 0.00 53 1002.2
20260510073049 74 187 4.0 0.0 0.00 0.00 0.00 52 1002.4
20260510071546 75 172 4.0 0.0 0.00 0.00 0.00 50 1002.6
20260510070047 75 161 4.0 0.0 0.00 0.00 0.00 48 1002.7
20260510064543 75 155 4.0 0.0 0.00 0.00 0.00 45 1002.7
20260510063041 75 167 4.0 0.0 0.00 0.00 0.00 44 1002.8
20260510061539 76 129 3.0 0.0 0.00 0.00 0.00 43 1002.9
20260510060046 77 152 4.0 0.0 0.00 0.00 0.00 42 1002.8
20260510054534 77 171 4.0 0.0 0.00 0.00 0.00 41 1002.7
20260510053032 77 148 5.0 0.0 0.00 0.00 0.00 40 1002.7
20260510051529 78 155 5.0 0.0 0.00 0.00 0.00 40 1002.6
20260510050027 78 151 5.0 0.0 0.00 0.00 0.00 39 1002.7
20260510044524 79 159 5.0 0.0 0.00 0.00 0.00 38 1002.7
20260510043025 79 157 5.0 0.0 0.00 0.00 0.00 36 1002.7
20260510041530 80 144 5.0 0.0 0.00 0.00 0.00 34 1002.7
20260510040025 81 140 5.0 0.0 0.00 0.00 0.00 32 1002.6
20260510034523 81 176 5.0 0.0 0.00 0.00 0.00 30 1002.5
20260510033024 82 150 4.0 0.0 0.00 0.00 0.00 29 1002.4
20260510031533 83 168 5.0 0.0 0.00 0.00 0.00 28 1002.3
20260510030023 83 158 6.0 0.0 0.00 0.00 0.00 28 1002.2
20260510024523 84 120 5.0 0.0 0.00 0.00 0.00 27 1002.1
20260510023036 85 150 5.0 0.0 0.00 0.00 0.00 27 1001.9
20260510021523 86 165 5.0 0.0 0.00 0.00 0.00 26 1001.8
20260510020021 87 152 5.0 0.0 0.00 0.00 0.00 25 1001.6
20260510014521 88 152 4.0 0.0 0.00 0.00 0.00 22 1001.4
20260510013020 89 143 4.0 0.0 0.00 0.00 0.00 19 1001.2
20260510011524 90 145 2.0 0.0 0.00 0.00 0.00 18 1001.0
20260510010025 91 132 3.0 0.0 0.00 0.00 0.00 18 1001.0
20260510004519 91 152 4.0 0.0 0.00 0.00 0.00 17 1001.1
20260510003017 92 180 4.0 0.0 0.00 0.00 0.00 16 1001.1
20260510001517 92 186 3.0 0.0 0.00 0.00 0.00 17 1001.2
20260510000015 93 141 4.0 0.0 0.00 0.00 0.00 17 1001.3
20260509234514 93 156 4.0 0.0 0.00 0.00 0.00 17 1001.4
20260509233013 93 210 3.0 0.0 0.00 0.00 0.00 17 1001.4
20260509231512 93 215 3.0 0.0 0.00 0.00 0.00 17 1001.6
20260509230010 93 146 4.0 0.0 0.00 0.00 0.00 18 1001.7
20260509224509 93 200 3.0 0.0 0.00 0.00 0.00 17 1001.7
20260509223008 92 179 3.0 0.0 0.00 0.00 0.00 18 1001.8
20260509221507 92 185 4.0 0.0 0.00 0.00 0.00 18 1002.0
20260509220005 92 194 5.0 0.0 0.00 0.00 0.00 18 1002.1
20260509214502 91 121 5.0 0.0 0.00 0.00 0.00 21 1002.3
20260509213002 91 186 4.0 0.0 0.00 0.00 0.00 21 1002.3
20260509211615 93 172 5.0 0.0 0.00 0.00 0.00 19 1002.8
20260509204603 93 179 5.0 0.0 0.00 0.00 0.00 21 1003.3
20260509203059 92 181 5.0 0.0 0.00 0.00 0.00 21 1003.4
20260509201551 92 161 4.0 0.0 0.00 0.00 0.00 23 1003.7
20260509200049 93 200 4.0 0.0 0.00 0.00 0.00 23 1003.9
20260509194547 92 122 4.0 0.0 0.00 0.00 0.00 24 1004.2
20260509193045 91 207 5.0 0.0 0.00 0.00 0.00 25 1004.4
20260509191542 91 214 4.0 0.0 0.00 0.00 0.00 27 1004.6
20260509190047 90 153 4.0 0.0 0.00 0.00 0.00 26 1004.8
20260509184538 90 160 4.0 0.0 0.00 0.00 0.00 28 1004.9
20260509183037 90 158 4.0 0.0 0.00 0.00 0.00 29 1005.2
20260509181533 89 130 4.0 0.0 0.00 0.00 0.00 30 1005.5
20260509180030 88 205 5.0 0.0 0.00 0.00 0.00 33 1005.7